15 daagse weersverwachting Córdoba (ES)

  • Overzicht
  • Per uur
  • 15 dagen
  • Extra
  • Vergelijk
  • Kaarten
  • Dagkaart
  • Meer »
  • Info
  • Statistieken
  • Directe link
    Temp 6h Neerslag Wind  
 07:56     19:08    Daglengte: 11:12 Vandaag
13:00
13°
 
2
19:00
14°
 
1
 07:55     19:09    Daglengte: 11:14 Morgen
01:00
 
2
07:00
1.7 mm
3
13:00
16°
 
3
19:00
15°
 
2
 07:53     19:10    Daglengte: 11:17 Dinsdag 27 Feb
01:00
12°
5.7 mm
2
07:00
11°
17.7 mm
4
13:00
15°
10.5 mm
6
19:00
14°
 
5
 07:52     19:11    Daglengte: 11:19 Woensdag 28 Feb
01:00
13°
28.5 mm
5
07:00
12°
93.5 mm
6
Locatie info
Region: Andalucía
Latitude: 37.8707°N
Longitude: -4.7786°E
117 masl
Postcode: 14009
Temp/Neerslag /Baro Onweer/Dauwpunt
    Temp Baro 1h Neerslag Dauwpunt Wind UV Bewolking  
 07:56     19:08    Daglengte: 11:12 Vandaag
11:00
10°
Voelt als: 9.1°
1012.9 hPa
21%
6.9°
2
Windvlaag: -0.8 km/h
53%
12:00
11°
1012.7 hPa
21%
7.3°
2
Windvlaag: -0.7 km/h
33%
13:00
13°
1012.5 hPa
21%
6.9°
2
Windvlaag: 0.7 km/h
5%
14:00
15°
1012.0 hPa
21%
5.3°
2
Windvlaag: 2.4 km/h
2%
15:00
15°
1011.3 hPa
21%
3.9°
2
Windvlaag: 2.9 km/h
0%
16:00
16°
1010.8 hPa
21%
3.2°
2
Windvlaag: 2.7 km/h
0%
17:00
16°
1010.7 hPa
21%
2.8°
1
Windvlaag: 2.1 km/h
0%
18:00
16°
1010.8 hPa
21%
2.8°
1
Windvlaag: 2 km/h
0%
19:00
14°
1011.2 hPa
21%
2.3°
1
Windvlaag: 1.8 km/h
0%
20:00
13°
1011.7 hPa
21%
3.9°
1
Windvlaag: 0.8 km/h
0%
21:00
11°
1011.9 hPa
21%
3.8°
1
Windvlaag: -1 km/h
0%
22:00
10°
1012.1 hPa
21%
3.6°
2
Windvlaag: -1.4 km/h
3%
23:00
Voelt als: 8.8°
1012.2 hPa
21%
3.6°
2
Windvlaag: -1.5 km/h
6%
 07:55     19:09    Daglengte: 11:14 Morgen
00:00
Voelt als: 8.3°
1012.0 hPa
21%
3.7°
2
Windvlaag: -1.9 km/h
17%
01:00
Voelt als: 7.0°
1011.5 hPa
21%
3.9°
2
Windvlaag: -1.7 km/h
10%
02:00
Voelt als: 6.1°
1011.4 hPa 1.7 mm
21%
3.8°
2
Windvlaag: -1.6 km/h
14%
03:00
Voelt als: 5.2°
1010.9 hPa
21%
3.6°
2
Windvlaag: -1.5 km/h
14%
04:00
Voelt als: 4.8°
1010.2 hPa
21%
3.4°
2
Windvlaag: -1.1 km/h
16%
05:00
Voelt als: 4.2°
1010.0 hPa
21%
1.9°
3
Windvlaag: -1 km/h
13%
06:00
Voelt als: 3.9°
1009.8 hPa
21%
1.2°
3
Windvlaag: -1.5 km/h
13%
07:00
Voelt als: 3.8°
1009.6 hPa
21%
1.2°
3
Windvlaag: -2.4 km/h
32%
08:00
Voelt als: 4.0°
1009.4 hPa
21%
1.2°
3
Windvlaag: -2.7 km/h
54%
09:00
Voelt als: 5.7°
1009.4 hPa
21%
1.5°
3
Windvlaag: -3.1 km/h
61%
10:00
10°
1008.9 hPa
21%
1.0°
4
Windvlaag: -3.2 km/h
49%
11:00
12°
1008.0 hPa
21%
1.1°
3
Windvlaag: -3.1 km/h
23%
12:00
15°
1007.2 hPa
21%
1.3°
3
Windvlaag: -2.8 km/h
26%
13:00
16°
1006.4 hPa
21%
1.9°
3
Windvlaag: -1.8 km/h
18%
14:00
18°
1005.3 hPa
21%
2.2°
2
Windvlaag: -2.1 km/h
17%
15:00
18°
1004.1 hPa
21%
2.6°
1
Windvlaag: -1.4 km/h
32%
16:00
19°
1003.2 hPa
21%
2.7°
1
Windvlaag: -1.6 km/h
71%
17:00
19°
1002.5 hPa
21%
2.9°
2
Windvlaag: -0.9 km/h
73%
18:00
18°
1002.3 hPa
21%
5.0°
3
Windvlaag: 0.4 km/h
76%
19:00
15°
1003.0 hPa
21%
6.6°
2
Windvlaag: 0.4 km/h
81%
20:00
14°
1003.9 hPa 1.8 mm
21%
7.9°
2
Windvlaag: 1.9 km/h
81%
21:00
13°
1004.6 hPa
21%
7.6°
4
Windvlaag: 5 km/h
81%
22:00
12°
1005.0 hPa
21%
7.7°
3
Windvlaag: 3.4 km/h
81%
23:00
12°
1005.2 hPa 3.9 mm
21%
7.6°
3
Windvlaag: 2.8 km/h
81%
 07:53     19:10    Daglengte: 11:17 Dinsdag 27 Feb
00:00
12°
1005.1 hPa
21%
7.8°
3
Windvlaag: 2 km/h
81%
01:00
12°
1004.9 hPa
21%
8.7°
2
Windvlaag: 1.7 km/h
81%
02:00
12°
1004.8 hPa 6.4 mm
21%
9.4°
2
Windvlaag: 2.5 km/h
80%
03:00
12°
1004.7 hPa
21%
10.1°
3
Windvlaag: 2.7 km/h
80%
04:00
11°
1004.6 hPa
100%
10.2°
2
Windvlaag: 3 km/h
89%
05:00
11°
1004.6 hPa 5.6 mm
100%
10.3°
2
Windvlaag: 2.8 km/h
83%
06:00
11°
1005.0 hPa 5.8 mm
100%
10.2°
4
Windvlaag: 4.2 km/h
82%
07:00
11°
1005.6 hPa
100%
10.2°
4
Windvlaag: 5.3 km/h
84%
08:00
11°
1006.4 hPa
100%
10.3°
4
Windvlaag: 6.1 km/h
83%
09:00
11°
1007.2 hPa 5.2 mm
100%
9.8°
4
Windvlaag: 5.8 km/h
84%
10:00
11°
1007.6 hPa 5.2 mm
100%
9.3°
4
Windvlaag: 5.2 km/h
85%
11:00
12°
1007.6 hPa
100%
9.5°
4
Windvlaag: 6.1 km/h
77%
12:00
13°
1007.9 hPa
100%
8.8°
5
Windvlaag: 7.4 km/h
40%
13:00
15°
1007.8 hPa
100%
8.0°
6
Windvlaag: 8.4 km/h
27%
14:00
15°
1007.1 hPa
100%
9.4°
7
Windvlaag: 8.5 km/h
42%
15:00
16°
1006.3 hPa
100%
7.4°
6
Windvlaag: 8.4 km/h
45%
16:00
16°
1005.9 hPa
100%
8.0°
6
Windvlaag: 7.1 km/h
68%
17:00
15°
1005.7 hPa
100%
7.8°
6
Windvlaag: 8 km/h
68%
18:00
15°
1005.5 hPa
100%
8.4°
6
Windvlaag: 7.7 km/h
82%
19:00
14°
1006.1 hPa
100%
9.0°
5
Windvlaag: 6.7 km/h
73%
20:00
13°
1006.7 hPa 5.3 mm
100%
9.7°
5
Windvlaag: 6.8 km/h
80%
21:00
13°
1006.6 hPa 5.5 mm
100%
9.9°
4
Windvlaag: 6.3 km/h
82%
22:00
13°
1006.4 hPa 5.7 mm
100%
10.0°
5
Windvlaag: 7.3 km/h
90%
23:00
13°
1006.2 hPa 5.9 mm
100%
10.5°
5
Windvlaag: 8.9 km/h
96%
 07:52     19:11    Daglengte: 11:19 Woensdag 28 Feb
00:00
13°
1005.7 hPa 6.2 mm
100%
10.8°
6
Windvlaag: 9.4 km/h
100%
01:00
13°
1005.3 hPa
100%
10.9°
5
Windvlaag: 9.1 km/h
100%
02:00
13°
1004.5 hPa 15.6 mm
100%
11.0°
3
Windvlaag: 9.7 km/h
100%
03:00
12°
1003.7 hPa 15.6 mm
100%
10.8°
3
Windvlaag: 10 km/h
88%
04:00
12°
1002.8 hPa 15.6 mm
100%
10.1°
4
Windvlaag: 10.9 km/h
62%
05:00
11°
1002.0 hPa 15.6 mm
100%
8.8°
5
Windvlaag: 12.3 km/h
4%
06:00
11°
1001.6 hPa 15.6 mm
100%
8.2°
4
Windvlaag: 12.9 km/h
42%
07:00
12°
1000.7 hPa 15.6 mm
100%
8.8°
6
Windvlaag: 13.7 km/h
46%
08:00
13°
1000.1 hPa 15.6 mm
100%
8.7°
8
Windvlaag: 13.6 km/h
96%
09:00
13°
1000.0 hPa 15.7 mm
100%
9.1°
9
Windvlaag: 14.6 km/h
87%
10:00
13°
999.9 hPa 16.2 mm
100%
9.5°
9
Windvlaag: 15.2 km/h
100%
Temp/Neerslag /Baro Onweer/Dauwpunt
    Temp Baro Neerslag Dauwpunt Wind Bewolking  
 07:56     19:08    Daglengte: 11:12 Vandaag
13:00
13°
1012.5 hPa   6.9°
2
5%
16:00
16°
1010.8 hPa   3.2°
2
0%
19:00
14°
1011.2 hPa   2.3°
1
0%
22:00
10°
1012.1 hPa   3.6°
2
3%
 07:55     19:09    Daglengte: 11:14 Morgen
01:00
Voelt als: 7.0°
1011.5 hPa   3.9°
2
10%
04:00
Voelt als: 4.8°
1010.2 hPa 1.7 mm 3.4°
2
16%
07:00
Voelt als: 3.8°
1009.6 hPa   1.2°
3
32%
10:00
10°
1008.9 hPa   1.0°
4
49%
13:00
16°
1006.4 hPa   1.9°
3
18%
16:00
19°
1003.2 hPa   2.7°
1
71%
19:00
15°
1003.0 hPa   6.6°
2
81%
22:00
12°
1005.0 hPa 1.8 mm 7.7°
3
81%
 07:53     19:10    Daglengte: 11:17 Dinsdag 27 Feb
01:00
12°
1004.9 hPa 3.9 mm 8.7°
2
81%
04:00
11°
1004.6 hPa 6.4 mm 10.2°
2
89%
07:00
11°
1005.6 hPa 11.4 mm 10.2°
4
84%
10:00
11°
1007.6 hPa 10.5 mm 9.3°
4
85%
13:00
15°
1007.8 hPa   8.0°
6
27%
16:00
16°
1005.9 hPa   8.0°
6
68%
19:00
14°
1006.1 hPa   9.0°
5
73%
22:00
13°
1006.4 hPa 16.4 mm 10.0°
5
90%
 07:52     19:11    Daglengte: 11:19 Woensdag 28 Feb
01:00
13°
1005.3 hPa 12.1 mm 10.9°
5
100%
04:00
12°
1002.8 hPa 46.8 mm 10.1°
4
62%
07:00
12°
1000.7 hPa 46.8 mm 8.8°
6
46%
10:00
13°
999.9 hPa 47.5 mm 9.5°
9
100%
13:00
15°
999.9 hPa 54.9 mm 12.1°
10
97%
16:00
13°
998.3 hPa 4.9 mm 10.7°
4
1%
19:00
13°
998.4 hPa 8.6 mm 10.7°
5
1%
22:00
12°
999.4 hPa 3.2 mm 10.7°
4
1%
 07:51     19:12    Daglengte: 11:21 Donderdag 01 Maa
01:00
12°
997.5 hPa 6.8 mm 10.7°
4
1%
04:00
12°
993.5 hPa 9.1 mm 11.0°
4
1%
07:00
12°
992.5 hPa 20.2 mm 11.1°
6
1%
10:00
13°
993.3 hPa 3.9 mm 10.9°
9
1%
13:00
14°
994.4 hPa 5.6 mm 11.2°
9
1%
16:00
15°
995.7 hPa 1.7 mm 11.3°
9
1%
19:00
14°
999.5 hPa 3.0 mm 11.0°
7
1%
22:00
12°
1004.7 hPa 0.3 mm 10.1°
5
1%
 07:49     19:13    Daglengte: 11:24 Vrijdag 02 Maa
01:00
11°
1006.7 hPa 0.3 mm 10.2°
4
1%
04:00
11°
1006.7 hPa 0.1 mm 10.6°
3
1%
07:00
11°
1006.9 hPa 0.4 mm 10.5°
2
1%
10:00
13°
1006.5 hPa 0.2 mm 10.0°
2
1%
13:00
14°
1006.5 hPa 1.5 mm 12.5°
3
1%
16:00
15°
1005.7 hPa 4.9 mm 14.1°
5
1%
19:00
14°
1007.3 hPa 9.8 mm 12.8°
4
1%
22:00
13°
1009.8 hPa 0.2 mm 11.6°
4
1%
 07:48     19:14    Daglengte: 11:26 Zaterdag 03 Maa
01:00
11°
1010.5 hPa 0.3 mm 10.0°
3
1%
04:00
11°
1009.9 hPa 0.1 mm 9.6°
2
1%
07:00
11°
1010.7 hPa 0.2 mm 9.3°
1
1%
10:00
13°
1011.7 hPa   9.2°
2
1%
13:00
17°
1009.8 hPa   10.2°
4
0%
16:00
19°
1007.3 hPa   11.3°
4
1%
19:00
15°
1006.4 hPa 0.8 mm 13.0°
2
1%
22:00
14°
1005.2 hPa 11.5 mm 13.5°
2
1%
 07:46     19:15    Daglengte: 11:29 Zondag 04 Maa
01:00
15°
1002.8 hPa 22.4 mm 13.9°
4
1%
04:00
14°
1001.0 hPa 9.7 mm 13.6°
3
1%
07:00
14°
1001.8 hPa 14.0 mm 13.1°
8
1%
10:00
15°
1002.9 hPa   13.0°
7
1%
13:00
15°
1002.4 hPa 3.3 mm 13.0°
8
1%
19:00
14°
1003.1 hPa 3.8 mm 10.2°
7
0%
 07:45     19:16    Daglengte: 11:31 Maandag 05 Maa
01:00
12°
1003.2 hPa 2.6 mm 10.5°
7
1%
07:00
11°
1001.0 hPa 12.1 mm 9.9°
9
1%
13:00
15°
1003.1 hPa 6.0 mm 9.1°
10
1%
19:00
13°
1004.2 hPa 1.3 mm 9.2°
6
1%
 07:44     19:17    Daglengte: 11:33 Dinsdag 06 Maa
01:00
11°
1003.3 hPa 1.1 mm 9.6°
4
1%
07:00
12°
991.9 hPa 7.2 mm 9.7°
4
1%
13:00
15°
1001.6 hPa 5.9 mm 7.9°
9
1%
19:00
12°
1004.7 hPa 1.1 mm 7.4°
6
1%
 07:42     19:18    Daglengte: 11:36 Woensdag 07 Maa
01:00
Voelt als: 5.3°
1007.9 hPa 0.2 mm 5.7°
2
0%
07:00
10°
1008.9 hPa 2.1 mm 9.5°
4
0%
13:00
15°
1010.2 hPa 2.2 mm 11.1°
5
0%
19:00
14°
1008.9 hPa 3.6 mm 11.3°
3
0%
 07:41     19:19    Daglengte: 11:38 Donderdag 08 Maa
01:00
12°
1010.2 hPa 1.6 mm 10.0°
3
0%
07:00
11°
1009.1 hPa 1.2 mm 9.6°
2
0%
13:00
16°
1009.6 hPa 2.8 mm 12.1°
5
0%
19:00
15°
1009.0 hPa 2.6 mm 12.2°
5
0%
 07:39     19:20    Daglengte: 11:41 Vrijdag 09 Maa
01:00
12°
1010.9 hPa 1.4 mm 10.9°
4
0%
07:00
11°
1009.8 hPa 1.9 mm 10.2°
4
0%
13:00
15°
1010.7 hPa 2.1 mm 11.8°
7
0%
19:00
14°
1010.0 hPa 2.0 mm 11.5°
6
0%
 07:38     19:21    Daglengte: 11:43 Zaterdag 10 Maa
01:00
11°
1012.7 hPa 1.5 mm 9.9°
4
0%
07:00
10°
Voelt als: 8.1°
1012.6 hPa 1.1 mm 9.0°
4
0%
13:00
14°
1013.2 hPa 1.7 mm 10.2°
6
0%
19:00
13°
1012.5 hPa 2.2 mm 9.9°
4
0%
 07:36     19:22    Daglengte: 11:46 Zondag 11 Maa
01:00
Voelt als: 8.2°
1014.2 hPa 1.5 mm 7.9°
2
0%
07:00
Voelt als: 7.2°
1013.2 hPa 0.8 mm 7.3°
2
0%
13:00
14°
1013.6 hPa 1.1 mm 9.2°
4
0%
19:00
13°
1012.6 hPa 2.0 mm 10.0°
4
0%
 07:35     19:23    Daglengte: 11:48 Maandag 12 Maa
01:00
10°
Voelt als: 8.4°
1014.4 hPa 1.7 mm 8.6°
3
0%
07:00
Voelt als: 7.8°
1014.2 hPa 1.3 mm 8.0°
2
0%
  CAPE Lifted Index Hail Supercell Tornado SRH 3km CL BTM PRES CL TOP PRES Swiss DWD icon SMHI TS
 07:56     19:08    Daglengte: 11:12 Vandaag
11:00 0 J/kg 5.9 K 0 % 0 % 0 % 0 m²/s² 0 0 9.8
12:00 0 J/kg 6.5 K 0 % 0 % 0 % 0 m²/s² 0 0 11.66
13:00 2 J/kg 7.2 K 0 % 0 % 0 % 0 m²/s² 0 0 14.16
14:00 8 J/kg 7.0 K 0 % 0 % 0 % 0 m²/s² 0 0 16.27
15:00 0 J/kg 7.1 K 0 % 0 % 0 % 0 m²/s² 0 0 16.88
16:00 0 J/kg 7.5 K 0 % 0 % 0 % 0 m²/s² 0 0 17.34
17:00 0 J/kg 7.6 K 0 % 0 % 0 % 0 m²/s² 0 0 18.01
18:00 0 J/kg 7.6 K 0 % 0 % 0 % 0 m²/s² 0 0 18.07
19:00 0 J/kg 7.7 K 0 % 0 % 0 % 0 m²/s² 0 0 18.77
20:00 0 J/kg 8.2 K 0 % 0 % 0 % 0 m²/s² 0 0 19.3
21:00 0 J/kg 8.2 K 0 % 0 % 0 % 0 m²/s² 0 0 19.36
22:00 0 J/kg 7.5 K 0 % 0 % 0 % 0 m²/s² 0 0 18.69
23:00 0 J/kg 7.3 K 0 % 0 % 0 % 0 m²/s² 0 0 18.52
 07:55     19:09    Daglengte: 11:14 Morgen
00:00 0 J/kg 7.6 K 0 % 0 % 0 % 0 m²/s² 0 0 18.82
01:00 0 J/kg 7.7 K 0 % 0 % 0 % 0 m²/s² 0 0 19.55
02:00 0 J/kg 7.7 K 0 % 0 % 0 % 0 m²/s² 0 0 20.27
03:00 0 J/kg 7.8 K 0 % 0 % 0 % 0 m²/s² 0 0 20.37
04:00 0 J/kg 8.1 K 0 % 0 % 0 % 0 m²/s² 0 0 21.45
05:00 0 J/kg 8.1 K 0 % 0 % 0 % 0 m²/s² 0 0 21.45
06:00 0 J/kg 8.0 K 0 % 0 % 0 % 0 m²/s² 0 0 21.35
07:00 0 J/kg 7.9 K 0 % 0 % 0 % 0 m²/s² 0 0 20.44
08:00 0 J/kg 8.3 K 0 % 0 % 0 % 0 m²/s² 0 0 18.41
09:00 0 J/kg 8.7 K 0 % 0 % 0 % 0 m²/s² 0 0 16.5
10:00 0 J/kg 8.1 K 0 % 0 % 0 % 0 m²/s² 0 0 14.88
11:00 0 J/kg 6.0 K 0 % 0 % 0 % 0 m²/s² 0 0 12.39
12:00 0 J/kg 5.0 K 0 % 0 % 0 % 0 m²/s² 0 0 11.21
13:00 0 J/kg 4.6 K 0 % 0 % 0 % 0 m²/s² 0 0 9.22
14:00 0 J/kg 4.0 K 0 % 0 % 0 % 0 m²/s² 0 0 8.38
15:00 0 J/kg 3.2 K 0 % 0 % 0 % 0 m²/s² 0 0 5.69
16:00 0 J/kg 2.5 K 0 % 0 % 0 % 0 m²/s² 0 0 5.05
17:00 0 J/kg 2.1 K 0 % 0 % 0 % 0 m²/s² 0 0 3.87
18:00 0 J/kg 2.8 K 0 % 0 % 0 % 0 m²/s² 0 0 3.31
19:00 8 J/kg 1.4 K 0 % 0 % 0 % 0 m²/s² 0 0 1.52
20:00 68 J/kg 1.2 K 0 % 0 % 0 % 0 m²/s² 0 0 1.38
21:00 3 J/kg 2.0 K 0 % 0 % 0 % 0 m²/s² 0 0 2.21
22:00 1 J/kg 1.9 K 0 % 0 % 0 % 0 m²/s² 0 0 2.11
23:00 1 J/kg 2.1 K 0 % 0 % 0 % 0 m²/s² 0 0 2.31
 07:53     19:10    Daglengte: 11:17 Dinsdag 27 Feb
00:00 0 J/kg 1.6 K 0 % 0 % 0 % 0 m²/s² 0 0 1.78
01:00 0 J/kg 0.9 K 0 % 0 % 0 % 0 m²/s² 0 0 1.35
02:00 0 J/kg 1.3 K 0 % 0 % 0 % 0 m²/s² 0 0 2.17
03:00 2 J/kg 2.4 K 0 % 0 % 0 % 0 m²/s² 0 0 3.66
04:00 11 J/kg 2.3 K 0 % 0 % 0 % 0 m²/s² 0 0 4.1
05:00 0 J/kg 2.5 K 0 % 0 % 0 % 0 m²/s² 0 0 4.12
06:00 1 J/kg 3.1 K 0 % 0 % 0 % 0 m²/s² 0 0 4.24
07:00 10 J/kg 3.3 K 0 % 0 % 0 % 0 m²/s² 0 0 4.44
08:00 24 J/kg 3.9 K 0 % 0 % 0 % 0 m²/s² 0 0 5.52
09:00 31 J/kg 4.6 K 0 % 0 % 0 % 0 m²/s² 0 0 6.4
10:00 72 J/kg 4.7 K 0 % 0 % 0 % 0 m²/s² 0 0 7.22
11:00 70 J/kg 4.2 K 0 % 0 % 0 % 0 m²/s² 0 0 5.94
12:00 75 J/kg 3.5 K 0 % 0 % 0 % 0 m²/s² 0 0 5.48
13:00 87 J/kg 3.4 K 0 % 0 % 0 % 0 m²/s² 0 0 5.05
14:00 113 J/kg 2.8 K 0 % 0 % 0 % 0 m²/s² 0 0 3.4
15:00 58 J/kg 4.1 K 0 % 0 % 0 % 0 m²/s² 0 0 4.64
16:00 45 J/kg 3.9 K 0 % 0 % 0 % 0 m²/s² 0 0 5.16
17:00 49 J/kg 3.9 K 0 % 0 % 0 % 0 m²/s² 0 0 5.67
18:00 61 J/kg 3.7 K 0 % 0 % 0 % 0 m²/s² 0 0 6.85
19:00 49 J/kg 3.9 K 0 % 0 % 0 % 0 m²/s² 0 0 7.29
20:00 19 J/kg 4.1 K 0 % 0 % 0 % 0 m²/s² 0 0 6.62
21:00 18 J/kg 4.3 K 0 % 0 % 0 % 0 m²/s² 0 0 6.73
22:00 26 J/kg 4.2 K 0 % 0 % 0 % 0 m²/s² 0 0 6.63
23:00 22 J/kg 4.0 K 0 % 0 % 0 % 0 m²/s² 0 0 5.98
 07:52     19:11    Daglengte: 11:19 Woensdag 28 Feb
00:00 20 J/kg 4.1 K 0 % 0 % 0 % 0 m²/s² 0 0 5.18
01:00 21 J/kg 4.4 K 0 % 0 % 0 % 0 m²/s² 0 0 5.36
02:00 7 J/kg 4.8 K 0 % 0 % 0 % 0 m²/s² 0 0 5.91
03:00 0 J/kg 5.3 K 0 % 0 % 0 % 0 m²/s² 0 0 7.07
04:00 0 J/kg 5.9 K 0 % 0 % 0 % 0 m²/s² 0 0 8.51
05:00 0 J/kg 7.0 K 0 % 0 % 0 % 0 m²/s² 0 0 9.73
06:00 0 J/kg 7.1 K 0 % 0 % 0 % 0 m²/s² 0 0 9.77
07:00 0 J/kg 6.3 K 0 % 0 % 0 % 0 m²/s² 0 0 9.12
08:00 0 J/kg 5.3 K 0 % 0 % 0 % 0 m²/s² 0 0 6.47
09:00 0 J/kg 4.7 K 0 % 0 % 0 % 0 m²/s² 0 0 4.91
10:00 0 J/kg 3.7 K 0 % 0 % 0 % 0 m²/s² 0 0 3.91
Temp Baro Wind Neerslag
  EWN Forecast EWN WRFDA DWD ICON FMI HIRLAM MET Norway GFS
 07:56     19:08    Daglengte: 11:12 Vandaag
13:00 12.9° 1012.5 hPa 1.6 m/s 0.0 mm 13.0° 1011.8 hPa 2.8 m/s 6.9 mm 14.2° 1012.4 hPa 1.1 m/s 0.0 mm 14.0° 1012.6 hPa 2.7 m/s
16:00 16.0° 1010.8 hPa 1.7 m/s 0.0 mm 16.1° 1009.7 hPa 0.9 m/s 6.9 mm 17.4° 1010.7 hPa 1.9 m/s 0.0 mm 16.1° 1011.0 hPa 0.9 m/s
19:00 14.0° 1011.2 hPa 0.7 m/s 0.0 mm 13.9° 1009.5 hPa 0.3 m/s 6.9 mm 15.7° 1011.4 hPa 1.1 m/s 0.0 mm 12.1° 1011.4 hPa 0.6 m/s
22:00 10.0° 1012.1 hPa 1.5 m/s 0.0 mm 11.1° 1010.3 hPa 1.6 m/s 6.9 mm 10.4° 1013.1 hPa 0.8 m/s 0.0 mm 9.5° 1012.8 hPa 1.4 m/s
 07:55     19:09    Daglengte: 11:14 Morgen
01:00 8.1° 1011.5 hPa 1.9 m/s 0.0 mm 8.9° 1010.1 hPa 1.3 m/s 6.8 mm 8.5° 1012.7 hPa 1.9 m/s 0.0 mm 8.2° 1012.7 hPa 1.7 m/s
04:00 6.5° 1010.2 hPa 2.4 m/s 1.7 mm 6.8° 1008.9 hPa 3.0 m/s 6.8 mm 6.9° 1011.5 hPa 2.2 m/s 0.0 mm 7.0° 1011.2 hPa 1.9 m/s
07:00 6.1° 1009.6 hPa 3.1 m/s 0.0 mm 5.9° 1007.8 hPa 3.7 m/s 6.8 mm 7.4° 1011.2 hPa 3.1 m/s 0.0 mm 6.2° 1009.9 hPa 1.8 m/s
10:00 10.0° 1008.9 hPa 3.5 m/s 0.0 mm 10.6° 1007.4 hPa 4.1 m/s 6.8 mm 10.2° 1009.4 hPa 3.5 m/s 0.0 mm 10.9° 1008.8 hPa 2.4 m/s
13:00 16.5° 1006.4 hPa 2.5 m/s 0.0 mm 17.2° 1005.0 hPa 2.3 m/s 6.8 mm 17.1° 1006.5 hPa 2.4 m/s 0.0 mm 17.4° 1006.1 hPa 2.5 m/s
16:00 19.0° 1003.2 hPa 1.4 m/s 0.0 mm 20.3° 1001.9 hPa 1.5 m/s 6.8 mm 19.3° 1003.8 hPa 0.8 m/s 0.0 mm 20.0° 1003.1 hPa 1.4 m/s
19:00 15.2° 1003.0 hPa 2.4 m/s 0.0 mm 14.9° 1002.8 hPa 6.8 m/s 7.2 mm 17.3° 1003.7 hPa 2.0 m/s 0.0 mm 15.2° 1003.1 hPa 4.0 m/s
22:00 12.5° 1005.0 hPa 2.9 m/s 1.8 mm 11.8° 1004.4 hPa 3.3 m/s 25.2 mm 15.3° 1005.1 hPa 1.7 m/s 0.0 mm 12.0° 1004.4 hPa 0.8 m/s
 07:53     19:10    Daglengte: 11:17 Dinsdag 27 Feb
01:00 11.7° 1004.9 hPa 2.1 m/s 3.9 mm 11.2° 1003.2 hPa 1.9 m/s 39.0 mm 14.0° 1005.5 hPa 3.5 m/s 0.0 mm 12.3° 1004.2 hPa 3.3 m/s
04:00 11.0° 1004.6 hPa 1.6 m/s 6.4 mm 12.2° 1003.4 hPa 4.6 m/s 45.6 mm 11.5° 1004.3 hPa 3.8 m/s
07:00 10.7° 1005.6 hPa 3.9 m/s 11.4 mm 10.4° 1004.2 hPa 3.1 m/s 45.8 mm 11.1° 1004.2 hPa 2.7 m/s
10:00 11.2° 1007.6 hPa 4.0 m/s 10.5 mm 12.7° 1005.8 hPa 4.7 m/s 46.0 mm 12.1° 1005.5 hPa 4.3 m/s
13:00 14.6° 1007.8 hPa 6.3 m/s 0.0 mm 16.8° 1005.0 hPa 9.8 m/s 46.2 mm 15.4° 1005.7 hPa 7.4 m/s
16:00 16.2° 1005.9 hPa 6.2 m/s 0.0 mm 17.3° 1003.8 hPa 10.8 m/s 46.3 mm 16.8° 1004.9 hPa 7.6 m/s
19:00 14.1° 1006.1 hPa 5.2 m/s 0.0 mm 15.4° 1004.4 hPa 7.1 m/s 46.3 mm 14.5° 1005.8 hPa 5.1 m/s
22:00 13.0° 1006.4 hPa 4.9 m/s 16.4 mm 13.9° 1005.9 hPa 4.9 m/s 46.3 mm 12.3° 1007.2 hPa 3.5 m/s
 07:52     19:11    Daglengte: 11:19 Woensdag 28 Feb
01:00 12.5° 1005.3 hPa 4.9 m/s 12.1 mm 13.1° 1005.1 hPa 3.9 m/s 46.6 mm 11.0° 1006.1 hPa 1.8 m/s
04:00 11.9° 1002.8 hPa 3.7 m/s 46.8 mm 11.9° 1002.8 hPa 3.7 m/s 46.8 mm 10.0° 1003.7 hPa 1.8 m/s
07:00 11.9° 1000.7 hPa 6.3 m/s 46.8 mm 11.9° 1000.7 hPa 6.3 m/s 46.8 mm 9.4° 1001.5 hPa 2.0 m/s
10:00 13.4° 999.9 hPa 8.7 m/s 47.5 mm 13.4° 999.9 hPa 8.7 m/s 47.5 mm 11.5° 1000.7 hPa 1.6 m/s
13:00 14.6° 999.9 hPa 10.1 m/s 54.9 mm 14.6° 999.9 hPa 10.1 m/s 54.9 mm 12.8° 1000.5 hPa 4.0 m/s
16:00 12.5° 998.3 hPa 3.7 m/s 4.9 mm 12.5° 998.3 hPa 3.7 m/s 4.9 mm
19:00 12.6° 998.4 hPa 4.6 m/s 8.6 mm 12.6° 998.4 hPa 4.6 m/s 8.6 mm
22:00 11.8° 999.4 hPa 4.3 m/s 3.2 mm 11.8° 999.4 hPa 4.3 m/s 3.2 mm
 07:51     19:12    Daglengte: 11:21 Donderdag 01 Maa
01:00 11.8° 997.5 hPa 3.5 m/s 6.8 mm 11.8° 997.5 hPa 3.5 m/s 6.8 mm
04:00 11.8° 993.5 hPa 3.7 m/s 9.1 mm 11.8° 993.5 hPa 3.7 m/s 9.1 mm
07:00 12.4° 992.5 hPa 6.0 m/s 20.2 mm 12.4° 992.5 hPa 6.0 m/s 20.2 mm
10:00 13.2° 993.3 hPa 9.0 m/s 3.9 mm 13.2° 993.3 hPa 9.0 m/s 3.9 mm
13:00 14.2° 994.4 hPa 9.2 m/s 5.6 mm 14.2° 994.4 hPa 9.2 m/s 5.6 mm
16:00 14.7° 995.7 hPa 9.3 m/s 1.7 mm 14.7° 995.7 hPa 9.3 m/s 1.7 mm
19:00 13.8° 999.5 hPa 7.4 m/s 3.0 mm 13.8° 999.5 hPa 7.4 m/s 3.0 mm
22:00 11.5° 1004.7 hPa 5.4 m/s 0.3 mm 11.5° 1004.7 hPa 5.4 m/s 0.3 mm
 07:49     19:13    Daglengte: 11:24 Vrijdag 02 Maa
01:00 10.9° 1006.7 hPa 4.2 m/s 0.3 mm 10.9° 1006.7 hPa 4.2 m/s 0.3 mm
04:00 11.1° 1006.7 hPa 2.6 m/s 0.1 mm 11.1° 1006.7 hPa 2.6 m/s 0.1 mm
07:00 11.4° 1006.9 hPa 2.3 m/s 0.4 mm 11.4° 1006.9 hPa 2.3 m/s 0.4 mm
10:00 12.8° 1006.5 hPa 2.3 m/s 0.2 mm 12.8° 1006.5 hPa 2.3 m/s 0.2 mm
13:00 13.8° 1006.5 hPa 2.7 m/s 1.5 mm 13.8° 1006.5 hPa 2.7 m/s 1.5 mm
16:00 15.2° 1005.7 hPa 5.1 m/s 4.9 mm 15.2° 1005.7 hPa 5.1 m/s 4.9 mm
19:00 13.7° 1007.3 hPa 4.1 m/s 9.8 mm 13.7° 1007.3 hPa 4.1 m/s 9.8 mm
22:00 12.7° 1009.8 hPa 3.8 m/s 0.2 mm 12.7° 1009.8 hPa 3.8 m/s 0.2 mm
 07:48     19:14    Daglengte: 11:26 Zaterdag 03 Maa
01:00 11.1° 1010.5 hPa 2.7 m/s 0.3 mm 11.1° 1010.5 hPa 2.7 m/s 0.3 mm
04:00 11.2° 1009.9 hPa 1.9 m/s 0.1 mm 11.2° 1009.9 hPa 1.9 m/s 0.1 mm
07:00 11.1° 1010.7 hPa 1.4 m/s 0.2 mm 11.1° 1010.7 hPa 1.4 m/s 0.2 mm
10:00 12.7° 1011.7 hPa 1.6 m/s 0.0 mm 12.7° 1011.7 hPa 1.6 m/s 0.1 mm
13:00 17.2° 1009.8 hPa 3.7 m/s 0.0 mm 17.2° 1009.8 hPa 3.7 m/s 0.1 mm
16:00 18.7° 1007.3 hPa 3.9 m/s 0.0 mm 18.7° 1007.3 hPa 3.9 m/s 0.0 mm
19:00 15.0° 1006.4 hPa 1.8 m/s 0.8 mm 15.0° 1006.4 hPa 1.8 m/s 0.8 mm
22:00 14.2° 1005.2 hPa 2.0 m/s 11.5 mm 14.2° 1005.2 hPa 2.0 m/s 11.5 mm
 07:46     19:15    Daglengte: 11:29 Zondag 04 Maa
01:00 14.6° 1002.8 hPa 4.3 m/s 22.4 mm 14.6° 1002.8 hPa 4.3 m/s 22.4 mm
04:00 14.2° 1001.0 hPa 2.5 m/s 9.7 mm 14.2° 1001.0 hPa 2.5 m/s 9.7 mm
07:00 14.4° 1001.8 hPa 7.7 m/s 14.0 mm 14.4° 1001.8 hPa 7.7 m/s 14.0 mm
10:00 14.9° 1002.9 hPa 6.9 m/s 0.6 mm 14.9° 1002.9 hPa 6.9 m/s 0.6 mm
13:00 15.5° 1002.4 hPa 8.5 m/s 2.7 mm 15.5° 1002.4 hPa 8.5 m/s 2.7 mm
19:00 13.6° 1003.1 hPa 6.9 m/s 2.1 mm 13.6° 1003.1 hPa 6.9 m/s 2.1 mm
 07:45     19:16    Daglengte: 11:31 Maandag 05 Maa
01:00 11.9° 1003.2 hPa 7.0 m/s 2.4 mm 11.9° 1003.2 hPa 7.0 m/s 2.4 mm
07:00 11.5° 1001.0 hPa 9.0 m/s 8.4 mm 11.5° 1001.0 hPa 9.0 m/s 8.4 mm
13:00 14.9° 1003.1 hPa 10.5 m/s 3.4 mm 14.9° 1003.1 hPa 10.5 m/s 3.4 mm
19:00 12.9° 1004.2 hPa 5.6 m/s 0.6 mm 12.9° 1004.2 hPa 5.6 m/s 0.6 mm
 07:44     19:17    Daglengte: 11:33 Dinsdag 06 Maa
01:00 10.7° 1003.3 hPa 3.5 m/s 0.9 mm 10.7° 1003.3 hPa 3.5 m/s 0.9 mm
07:00 11.5° 991.9 hPa 4.0 m/s 6.4 mm 11.5° 991.9 hPa 4.0 m/s 6.4 mm
13:00 14.6° 1001.6 hPa 8.9 m/s 3.1 mm 14.6° 1001.6 hPa 8.9 m/s 3.1 mm
19:00 11.9° 1004.7 hPa 5.9 m/s 0.6 mm 11.9° 1004.7 hPa 5.9 m/s 0.6 mm
 07:42     19:18    Daglengte: 11:36 Woensdag 07 Maa
01:00 6.8° 1007.9 hPa 2.2 m/s 0.0 mm 6.8° 1007.9 hPa 2.2 m/s 0.1 mm
07:00 10.5° 1008.9 hPa 3.5 m/s 2.1 mm
13:00 14.8° 1010.2 hPa 5.1 m/s 2.2 mm
19:00 13.8° 1008.9 hPa 3.3 m/s 3.6 mm
 07:41     19:19    Daglengte: 11:38 Donderdag 08 Maa
01:00 11.7° 1010.2 hPa 2.9 m/s 1.6 mm
07:00 11.0° 1009.1 hPa 2.5 m/s 1.2 mm
13:00 15.9° 1009.6 hPa 5.5 m/s 2.8 mm
19:00 14.7° 1009.0 hPa 4.8 m/s 2.6 mm
 07:39     19:20    Daglengte: 11:41 Vrijdag 09 Maa
01:00 12.2° 1010.9 hPa 4.0 m/s 1.4 mm
07:00 11.4° 1009.8 hPa 4.2 m/s 1.9 mm
13:00 15.4° 1010.7 hPa 6.9 m/s 2.1 mm
19:00 14.2° 1010.0 hPa 5.8 m/s 2.0 mm
 07:38     19:21    Daglengte: 11:43 Zaterdag 10 Maa
01:00 11.1° 1012.7 hPa 4.4 m/s 1.5 mm
07:00 9.9° 1012.6 hPa 3.6 m/s 1.1 mm
13:00 14.1° 1013.2 hPa 5.6 m/s 1.7 mm
19:00 13.0° 1012.5 hPa 4.1 m/s 2.2 mm
 07:36     19:22    Daglengte: 11:46 Zondag 11 Maa
01:00 9.3° 1014.2 hPa 2.3 m/s 1.5 mm
07:00 8.3° 1013.2 hPa 2.0 m/s 0.8 mm
13:00 14.2° 1013.6 hPa 4.1 m/s 1.1 mm
19:00 13.2° 1012.6 hPa 4.5 m/s 2.0 mm
 07:35     19:23    Daglengte: 11:48 Maandag 12 Maa
01:00 9.9° 1014.4 hPa 3.0 m/s 1.7 mm
07:00 9.1° 1014.2 hPa 2.5 m/s 1.3 mm
FMI Hirlam - 7.5 km EWN WRFDA - 12 km DWD ICON - 7 km GFS - 25 km Basiskaart






























































Updatetijd (Europe/Amsterdam) Resolutie Lengte Stap
FMI Hirlam 06:00, 12:00, 18:00, 00:00 7.5 km 49h 1h
EWN WRFDA 08:00, 14:00, 20:00, 02:00 12 km 73h 1h
DWD ICON 05:45, 11:45, 17:45, 23:45 7 km 75h 1h
GFS 08:15, 14:15, 20:15, 02:15 25 km 237h 3h
30+ mm
25-30 mm
20-25 mm
15-20 mm
10-15 mm
6-10 mm
4-6 mm
2-4 mm
1-2 mm
0.5-1 mm
0.2-0.5 mm
0.1-0.2 mm
30+ mm
25-30 mm
20-25 mm
15-20 mm
10-15 mm
6-10 mm
4-6 mm
2-4 mm
1-2 mm
0.5-1 mm
0.2-0.5 mm
0.1-0.2 mm
Sneeuwval
Natte sneeuw
Hagel
Vorst
30+ mm
25-30 mm
20-25 mm
15-20 mm
10-15 mm
6-10 mm
4-6 mm
2-4 mm
1-2 mm
0.5-1 mm
0.2-0.5 mm
0.1-0.2 mm
Sneeuwval
Natte sneeuw
Hagel
Vorst
Onweer
50 mm
40 mm
30 mm
26 mm
22 mm
18 mm
14 mm
10 mm
9 mm
8 mm
7 mm
6 mm
5 mm
4.5 mm
4 mm
3.5 mm
3 mm
2.5 mm
2 mm
1.5 mm
1 mm
0.8 mm
0.6 mm
0.4 mm
0.2 mm
0.05 mm
35°
30°
25°
20°
15°
10°
-5°
-10°
-15°
-20°
-25°
-30°
-35°
120> km/h
105 km/h
90 km/h
75 km/h
60 km/h
50 km/h
40 km/h
30 km/h
20 km/h
10 km/h
0 km/h
2600 J/kg
2400 J/kg
2200 J/kg
2000 J/kg
1800 J/kg
1600 J/kg
1400 J/kg
1200 J/kg
1000 J/kg
800 J/kg
600 J/kg
400 J/kg
200 J/kg
70 dBZ
65 dBZ
60 dBZ
55 dBZ
50 dBZ
45 dBZ
40 dBZ
35 dBZ
30 dBZ
25 dBZ
20 dBZ
15 dBZ
10 dBZ
5 dBZ
-1 K
-2 K
-3 K
-4 K
-5 K
-6 K
-7 K
-8 K
-9 K
950 m²/s²
900 m²/s²
850 m²/s²
800 m²/s²
750 m²/s²
700 m²/s²
650 m²/s²
600 m²/s²
550 m²/s²
500 m²/s²
450 m²/s²
400 m²/s²
350 m²/s²
300 m²/s²
250 m²/s²
200 m²/s²
150 m²/s²
100 m²/s²
46 m/s
44 m/s
42 m/s
40 m/s
38 m/s
36 m/s
34 m/s
32 m/s
30 m/s
28 m/s
26 m/s
24 m/s
22 m/s
20 m/s
16 m/s
12 m/s
8 m/s
4 m/s
30 m/s
28 m/s
26 m/s
24 m/s
22 m/s
20 m/s
18 m/s
16 m/s
14 m/s
12 m/s
10 m/s
8 m/s
6 m/s
4 m/s
2 m/s
3.0
2.8
2.6
2.4
2.2
2.0
1.8
1.6
1.4
1.2
1.0
0.8
0.6
0.4
0.2
15
14
13
12
11
10
9
8
7
6
5
4
3
2
1
90%
80%
70%
60%
50%
40%
30%
20%
10%
42
40
38
36
34
32
30
28
26
24
22
20
18
16
14
12
90+ cm
80-90 cm
70-80 cm
60-70 cm
50-60 cm
40-50 cm
30-40 cm
20-30 cm
10-20 cm
1-10 cm
Sneeuwval
Natte sneeuw
Regen
>120 mm
115 mm
110 mm
105 mm
100 mm
95 mm
90 mm
85 mm
80 mm
75 mm
70 mm
65 mm
60 mm
55 mm
50 mm
45 mm
45 mm
40 mm
35 mm
30 mm
25 mm
20 mm
15 mm
10 mm
5 mm
0.1 mm
960 hPa
880 hPa
800 hPa
720 hPa
640 hPa
560 hPa
584 gpdm
568 gpdm
552 gpdm
536 gpdm
520 gpdm
504 gpdm
488 gpdm
Extreem zwaar Noodweer Kans op onweer
15% 15% 5% 50% 15%

Dag




Kaart






35°
30°
25°
20°
15°
10°
-5°
-10°
-15°
-20°
-25°
-30°
-35°
120> km/h
105 km/h
90 km/h
75 km/h
60 km/h
50 km/h
40 km/h
30 km/h
20 km/h
10 km/h
0 km/h
Extreem zwaar Noodweer Kans op onweer
15% 15% 5% 50% 15%
>120 mm
115 mm
110 mm
105 mm
100 mm
95 mm
90 mm
85 mm
80 mm
75 mm
70 mm
65 mm
60 mm
55 mm
50 mm
45 mm
45 mm
40 mm
35 mm
30 mm
25 mm
20 mm
15 mm
10 mm
5 mm
0.1 mm
Onweer risico kaarten - De groene en gele kleur geeft de kans op onweer aan binnen 40 km van een punt. Oranje, rood en violet hebben hetzelfde niveau zoals je het ziet op estofex.org waaronder ook de kans op hagel en supercells.

dBZ - dBZ staat voor decibel ten opzichte van Z.

Cape - Convective available potential energy (CAPE), is de totale hoeveelheid energie die een luchtpakketje nodig heeft om zover mogelijk te stijgen in de atmosfeer.

K Index - K-Index wordt berekend door de Vertical Totals (VT) en het verschil tussen de 850 hPa temperatuur en de 700 hPa dauwpuntsdepressie (Tdd 700) bij elkaar op te tellen.

TT Index - Convectie index wordt gebruikt voor het voorspellen van zware buien of onweer.

WRF - The Weather Research and Forecasting (WRF) is een volgende generatie mesoscale numeriek weersvoorspelling systeem ontworpen om zowel de operationele planning als het atmosferisch onderzoek te dienen. WRF is a cooperatie tussen het National Center for Atmospheric Research (NCAR), National Centers for Environmental Prediction (NCEP), Forecast Systems Laboratory (FSL), Air Force Weather Agency (AFWA), Naval Research Laboratory, University of Oklahoma, en de Federal Aviation Administration (FAA). Deze software draait op onze server.

WRFDA - Een meer geavanceerde versie van WRF

Arome - Het 2.5 km Arome model. Verzorgd door het Noors Meteorologisch Instituut.

MET Norway - De proff-default 4km meteorological data is een beste keus selectie van meteorologische modellen gebruikt door met.no die zijn geïnterpoleerd tot een gemeenschappelijke dataset. Verzorgd door het Noorse Meteorologisch Instituut.

SMHI - Het Hirlam model verzorgd door het Zweeds meteorologisch instituut.

FMI - Het Hirlam model verzorgd door het Fins meteorologisch instituut. Dekking alleen Finland.

GFS - Het Global Forecast Systeem (GFS) is een wereldwijd numerieke weersvoorspelling computermodel, gerund door NOAA.

GEM-GDPS - Het GEM-GDPS is a wereldwijd numeriek weersvoorspelling computermodel verzorgd door het Canadees Meteorologisch Centrum.

Credits/Info: Dank aan Stefan Gofferje van sääkeskus.fi voor enkele formules van GrADS. Info: Wikipedia.

Betrouwbaarheid van de verwachting

NB! 2015-03-29: Rebuilding the accuracy-test!

EWNACC
Day 1 Good forecasts

Dag 1 Tmax

Dag 2 Tmax

Geladen verwachtingen TOP 50

Totaal geladen verwachtingen:
Plaats Latitude Longitude Verwachtingen Plaats Latitude Longitude Verwachtingen